Regional Weather Roundup
Issued by NWS

Home | Current Version | Previous Version | Text Only | Print | Product List | Glossary Off
Versions: 1 2 3 4 5 6 7 8 9 10 11 12 13 14 15 16 17 18 19 20 21 22 23 24 25 26 27 28 29 30 31 32 33 34 35 36 37 38 39 40 41 42 43 44 45 46 47 48 49 50

000
ASUS43 KMKX 250810
RWRWI

WISCONSIN REGIONAL WEATHER ROUNDUP
NATIONAL WEATHER SERVICE MILWAUKEE/SULLIVAN WI
300 AM CDT WED APR 25 2018

NOTE: "FAIR" INDICATES FEW OR NO CLOUDS BELOW 12,000 FEET WITH NO
SIGNIFICANT WEATHER AND/OR OBSTRUCTIONS TO VISIBILITY.

WIZ001-002-006>008-014>016-023>028-250900-
NORTHWEST WISCONSIN

CITY           SKY/WX    TMP DP  RH WIND       PRES   REMARKS
SUPERIOR ARPT  FAIR      32  23  70 NW3       30.29S
ASHLAND        FAIR      27  24  89 CALM      30.27F
HAYWARD        FAIR      31  23  72 CALM      30.25S
SIREN          FAIR      32  23  68 N3        30.26F
CUMBERLAND     FAIR      34  23  64 N7        30.24S WCI  28
RICE LAKE      FAIR      35  27  72 CALM      30.25R
CHETEK         FAIR      36  26  68 N5        30.23F WCI  32
LADYSMITH      FAIR      34  28  78 N7        30.23R WCI  27
EAU CLAIRE     FAIR      37  29  72 N8        30.21S WCI  31
MENOMONIE      FAIR      38  30  71 N5        30.22S WCI  35
NEW RICHMOND   FAIR      36  26  66 N8        30.24S WCI  29
OSCEOLA        FAIR      37  25  61 N6        30.28S WCI  33
$$

WIZ003>005-009-010-017-018-250900-
NORTH CENTRAL WISCONSIN

CITY           SKY/WX    TMP DP  RH WIND       PRES   REMARKS
MANITOWISH WTR FAIR      29  29 100 CALM      30.20S
ARBOR VITAE    FAIR      32  31  96 N5        30.19S WCI  27
WOODRUFF       FAIR      32  31  96 N5        30.19S WCI  27
RHINELANDER    FAIR      32  31  96 N5        30.17F WCI  27
EAGLE RIVER    FAIR      31  29  94 N5        30.17F WCI  26
LAND O LAKES   FAIR      31  28  88 N7        30.20R WCI  24
PHILLIPS       FAIR      31  29  93 N6        30.20S WCI  25
TOMAHAWK       FAIR      30  29  97 CALM      30.18F
MEDFORD        FAIR      32  30  92 N6        30.17S WCI  26
MERRILL        FAIR      32  32 100 N5        30.18S WCI  28
$$

WIZ029-030-035-036-043>047-250900-
CENTRAL WISCONSIN

CITY           SKY/WX    TMP DP  RH WIND       PRES   REMARKS
WAUSAU         FAIR      35  34  96 N6        30.14F WCI  30
MOSINEE        FAIR      36  34  93 N7        30.17S WCI  30
MARSHFIELD     FAIR      37  35  92 N8        30.15S WCI  31
STEVENS POINT  FAIR      36  35  98 N6        30.16S WCI  31
WAUPACA        FAIR      43  36  76 N7        30.15S
WAUTOMA        FAIR      41  36  82 N5        30.14F
WISC RAPIDS    FAIR      39  34  82 N8        30.16S WCI  33
CAMP DOUGLAS   FAIR      41  36  82 N7        30.14F
$$

WIZ011>013-019>022-031-037>040-048>050-250900-
NORTHEAST WISCONSIN

CITY           SKY/WX    TMP DP  RH WIND       PRES   REMARKS
ANTIGO         FAIR      32  32 100 N6        30.16S WCI  26
SHAWANO        FAIR      40  37  86 N7        30.15S
OCONTO         FAIR      38  35  89 N8        30.14F WCI  33
STURGEON BAY   FAIR      37  33  85 N13       30.13F WCI  29
GREEN BAY      MOCLDY    41  36  82 N7        30.14S
MANITOWOC      CLOUDY    41  35  79 N7        30.12F
APPLETON       MOCLDY    41  32  70 N10       30.12S
CLINTONVILLE   FAIR      40  35  80 N6        30.15S
OSHKOSH        FAIR      42  35  76 N8        30.12F
$$

WIZ032>034-041-042-053>061-250900-
SOUTHWEST WISCONSIN

CITY           SKY/WX    TMP DP  RH WIND       PRES   REMARKS
LA CROSSE      FAIR      40  34  79 NW8       30.17R WCI  34
SPARTA         FAIR      37  34  90 N6        30.17S WCI  32
VIROQUA        FAIR      39  36  89 N6        30.14F WCI  34
BOSCOBEL       FAIR      47  35  63 E3        30.13F
PRAIRIE DU CHI FAIR      48  33  54 N9        30.13R
PLATTEVILLE    FAIR      44  34  67 N7        30.10R
$$

WIZ056-057-062-063-064-067-068-250900-
SOUTH CENTRAL WISCONSIN

CITY           SKY/WX    TMP DP  RH WIND       PRES   REMARKS
REEDSBURG      CLOUDY    44  36  73 N5        30.12S
BARABOO/DELLS  FAIR      43  32  65 N5        30.12S
LONE ROCK      FAIR      44  34  67 N7        30.12S
MINERAL POINT  FAIR      45  34  65 N9        30.09F
MADISON        FAIR      44  31  60 NE9       30.11S
MIDDLETON      FAIR      45  32  60 NE7       30.11F
WATERTOWN      FAIR      42  33  70 N5        30.10S
MONROE         CLOUDY    46  30  53 NE15      30.08S
JANESVILLE     CLOUDY    46  32  57 NE9       30.09S
$$

WIZ051-052-058>065-066-070>072-250900-
SOUTHEAST WISCONSIN

CITY           SKY/WX    TMP DP  RH WIND       PRES   REMARKS
MILWAUKEE      FAIR      42  34  73 N18G32    30.08R
WAUKESHA       FAIR      41  32  70 N14G26    30.10F
MILWAUKEE/TIMM FAIR      43  32  65 NE15G24   30.10S
RACINE         MOCLDY    41  33  73 N20G31    30.09S
BURLINGTON     FAIR      44  30  59 N14G24    30.08F
KENOSHA        CLOUDY    44  31  60 NE18G26   30.07F
FOND DU LAC    FAIR      43  32  65 N12       30.12F
SHEBOYGAN      FAIR      40  36  86 NE10      30.11F WCI  33
WEST BEND      FAIR      41  32  70 NE6       30.10S
JUNEAU         FAIR      41  31  67 N5        30.12S
$$

LSZ147-162-250900-
LAKE SUPERIOR

STATION/POSITION TIME  TEMP    WIND        PRES    WAVE
                       AIR SEA DIR/SP/G            HT/PER
                 (UTC) (F)     (DEG/KT/KT) (MB)    (FT/S)
DEVILS ISLAND    0800   35     360/ 10/ 11 1025.9F
SAXON HARBOR     0730   29     200/  2/  2 1024.0F
$$

LMZ867-665-643>646-250900-
LAKE MICHIGAN

STATION/POSITION TIME  TEMP    WIND        PRES    WAVE
                       AIR SEA DIR/SP/G            HT/PER
                 (UTC) (F)     (DEG/KT/KT) (MB)    (FT/S)
NORTHPORT PIER   0740   35                 1020.0F
KEWAUNEE LAKESHO 0742   41     340/  5/  8 1019.2S
SHEBOYGAN LAKESH 0800   39      10/ 15/ 16 1020.1F
PORT WASHINGTON  0740   43      20/ 10/ 18 1020.3S
MILWAUKEE LAKESH 0750   41     360/ 19/ 22   N/A
KENOSHA   LAKESH 0800   42                 1017.6
$$

TC  - TEMPERATURE IN CELSIUS
VSB - VISIBILITY IN STATUTE MILES
WCI - WIND CHILL INDEX
HX  - HEAT INDEX





USA.gov is the U.S. government's official web portal to all federal, state and local government web resources and services.